Tims Ford Observed Data For Previous 48 Hours

Caption
Day and Hour Reservoir Elevation (behind dam)* Tailwater Elevation (below dam)* Average Hourly Discharge*
6/20/2018 1 AM CDT 888.17 744.14 240
6/20/2018 2 AM CDT 888.17 744.14 240
6/20/2018 3 AM CDT 888.18 744.14 240
6/20/2018 4 AM CDT 888.18 744.14 240
6/20/2018 5 AM CDT 888.18 744.14 240
6/20/2018 6 AM CDT 888.18 744.13 240
6/20/2018 7 AM CDT 888.18 744.14 240
6/20/2018 8 AM CDT 888.18 744.14 240
6/20/2018 9 AM CDT 888.18 744.12 240
6/20/2018 10 AM CDT 888.18 744.11 240
6/20/2018 11 AM CDT 888.18 744.12 240
6/20/2018 12 PM CDT 888.18 744.11 240
6/20/2018 1 PM CDT 888.18 744.12 240
6/20/2018 2 PM CDT 888.18 744.14 240
6/20/2018 3 PM CDT 888.18 744.14 240
6/20/2018 4 PM CDT 888.18 744.14 240
6/20/2018 5 PM CDT 888.18 744.14 240
6/20/2018 6 PM CDT 888.18 744.14 240
6/20/2018 7 PM CDT 888.18 744.13 240
6/20/2018 8 PM CDT 888.18 744.13 240
6/20/2018 9 PM CDT 888.18 744.13 240
6/20/2018 10 PM CDT 888.18 744.13 240
6/20/2018 11 PM CDT 888.18 744.13 240
6/21/2018 12 AM CDT 888.18 744.14 240
6/21/2018 1 AM CDT 888.18 744.13 240
6/21/2018 2 AM CDT 888.19 744.16 240
6/21/2018 3 AM CDT 888.18 744.14 240
6/21/2018 4 AM CDT 888.18 744.13 240
6/21/2018 5 AM CDT 888.19 744.14 240
6/21/2018 6 AM CDT 888.19 744.15 240
6/21/2018 7 AM CDT 888.20 744.15 240
6/21/2018 8 AM CDT 888.20 744.15 240
6/21/2018 9 AM CDT 888.23 744.17 240
6/21/2018 10 AM CDT 888.27 744.16 240
6/21/2018 11 AM CDT 888.26 744.17 240
6/21/2018 12 PM CDT 888.26 744.14 240
6/21/2018 1 PM CDT 888.28 744.15 240
6/21/2018 2 PM CDT 888.25 744.17 240
6/21/2018 3 PM CDT 888.29 744.19 240
6/21/2018 4 PM CDT 888.29 744.18 240
6/21/2018 5 PM CDT 888.28 744.16 240
6/21/2018 6 PM CDT 888.30 744.17 240
6/21/2018 7 PM CDT 888.29 744.14 240
6/21/2018 8 PM CDT 888.29 744.15 240
6/21/2018 9 PM CDT 888.30 - 999.00 240
6/21/2018 10 PM CDT 888.29 - 999.00 240
6/21/2018 11 PM CDT 888.35 744.17 240
6/22/2018 12 AM CDT 888.34 744.17 240

Elevations are in feet above sea level. Discharges are in cubic feet per second and are reported at the end of the hour.